This demonstration page uses our WeatherBlox Daily Observations layout. Learn more.

41.55636, -103.73856

Hourly Observations for April 26, 2019

Temp ( °F °C ) Dew Point ( °F °C ) Humidity (%) Winds ( mph kmh ) Pressure ( in mb ) Visibility ( mi km ) Precip ( " mm )
12:53 am 00:53 Clear 42 5.6 38 3.3 85 85 ESE 6 9 30.12 1020 10 16.09344 0 0
1:53 am 01:53 Clear 41 5 38 3.3 89 89 ESE 7 11 30.09 1019 10 16.09344 0 0
2:53 am 02:53 Clear 40 4.4 37 2.8 89 89 E 7 11 30.06 1018 10 16.09344 0 0
3:53 am 03:53 Mostly Cloudy 40 4.4 38 3.3 93 93 E 9 15 30.06 1018 10 16.09344 0 0
4:53 am 04:53 Mostly Cloudy 40 4.4 37 2.8 89 89 ESE 10 17 30.03 1017 10 16.09344 0 0
5:53 am 05:53 Partly Cloudy 39 3.9 36 2.2 89 89 ESE 12 19 30 1016 10 16.09344 0 0
6:53 am 06:53 Partly Cloudy 42 5.6 37 2.8 82 82 ESE 13 20 29.97 1015 10 16.09344 0 0
7:53 am 07:53 Sunny 45 7.2 37 2.8 74 74 ESE 14 22 29.97 1015 10 16.09344 0 0
8:53 am 08:53 Sunny 49 9.4 38 3.3 66 66 ESE 15 24 29.91 1013 10 16.09344 0 0
9:53 am 09:53 Sunny 58 14.4 41 5 53 53 ESE 13 20 29.88 1012 10 16.09344 0 0
10:53 am 10:53 Sunny 64 17.8 39 3.9 40 40 VRB 3 6 29.85 1011 10 16.09344 0 0
11:53 am 11:53 Sunny 67 19.4 39 3.9 36 36 VRB 3 6 29.83 1010 10 16.09344 0 0
12:53 pm 12:53 Sunny 71 21.7 41 5 34 34 WNW 10 17 29.77 1008 10 16.09344 0 0
1:53 pm 13:53 Partly Cloudy 71 21.7 41 5 34 34 NNW 6 9 29.74 1007 10 16.09344 0 0
2:53 pm 14:53 Sunny 76 24.4 40 4.4 27 27 ENE 6 9 29.68 1005 10 16.09344 0 0
3:36 pm 15:36 Mostly Cloudy with Nearby Thunderstorms 70 21.1 45 7.2 41 41 N 8 13 29.56 1001 10 16.09344 0.001 0.001
3:47 pm 15:47 Cloudy with Thunderstorms 66 19 45 7 46 46 NW 39 63 29.65 1004 10 16.09344 0.001 0.001
3:53 pm 15:53 Very Windy with Storms Likely 59 15 45 7.2 60 60 NW 38 61 29.8 1009 9 14.484096 0.001 0.001
4:00 pm 16:00 Cloudy with Heavy Thunderstorms 53 11.7 48 8.9 83 83 NNW 36 57 29.77 1008 1.75 2.816352 0.001 0.001
4:10 pm 16:10 Cloudy with Thunderstorms 54 12 48 9 82 82 N 24 39 29.71 1006 3 4.828032 0 0
4:17 pm 16:17 Cloudy with Nearby Thunderstorms 56 13.3 50 10 81 81 NNE 23 37 29.68 1005 10 16.09344 0.12 3.048
4:29 pm 16:29 Partly Cloudy 60 15.6 51 10.6 72 72 NE 21 33 29.65 1004 10 16.09344 0.12 3.048
4:53 pm 16:53 Mostly Cloudy 62 16.7 50 10 65 65 ENE 12 19 29.71 1006 10 16.09344 0.12 3.048
5:53 pm 17:53 Mostly Cloudy 59 15 50 10 72 72 SE 7 11 29.71 1006 10 16.09344 0 0
6:53 pm 18:53 Cloudy with Light Rain 60 15.6 48 8.9 65 65 WSW 9 15 29.71 1006 10 16.09344 0.001 0.001
7:53 pm 19:53 Mostly Clear 57 13.9 49 9.4 74 74 S 13 20 29.65 1004 10 16.09344 0.001 0.001
8:53 pm 20:53 Mostly Cloudy 57 13.9 49 9.4 74 74 S 6 9 29.65 1004 10 16.09344 0 0
9:43 pm 21:43 Mostly Cloudy 57 13.9 47 8.3 69 69 S 16 26 29.59 1002 10 16.09344 0.001 0.001
9:53 pm 21:53 Mostly Clear 56 13.3 48 8.9 75 75 SW 17 28 29.59 1002 10 16.09344 0.001 0.001
10:53 pm 22:53 Clear 59 15 43 6.1 56 56 W 16 26 29.59 1002 10 16.09344 0 0
11:53 pm 23:53 Mostly Clear 53 11.7 45 7.2 74 74 WNW 16 26 29.68 1005 10 16.09344 0 0

Powered by AerisWeather